User: anonymous   Login
Location: Chanteloup
(48.8560°N, 2.7390°E)
Time: 14:11:59
(UTC+00:00)
Language:

IRAS Rocket - Orbit

View from above orbital plane
View from above orbital plane
View from above satellite
View from above satellite

Ground track
Ground track

The orbit data is extracted from the following two-line orbital elements,

1 13778U 83004B   22023.83286183  .00000016  00000-0  40726-4 0  9999
2 13778 100.0907 228.4409 0020540 311.7793  48.1617 14.09070938  3591
Epoch (UTC): 23 January 2022 19:59:19
Eccentricity: 0.0020540
inclination: 100.0907°
perigee height: 847 km
apogee height: 877 km
right ascension of ascending node: 228.4409°
argument of perigee: 311.7793°
revolutions per day: 14.09070938
mean anomaly at epoch: 48.1617°
orbit number at epoch: 359

The dashed part of the orbit path shows where the satellite is in the earth's shadow,  

DLR